Qianfan Jigui 06-12

operational
NORAD ID: 62796 Int'l Des: 2025-016 Owner: YUANX Country: CN Constellation: qianfan
LEOCIRCULARPOLAR

About Qianfan Jigui 06-12

Description loading...

Live Position

Loading 3D Globe...

Upcoming Passes

Altitude History

Altitude vs Time

uPlot chart will show altitude changes over time

Two-Line Element Set

1 62796U 25016M 25344.46330993 .00000191 00000-0 27784-3 0 9991
2 62796 88.9780 103.2637 0014260 351.2825 8.8076 13.50976229 46983
Epoch: Dec 10, 2025 • Age: 9 hours

Current Status

Altitude 1061.3 km
Velocity 7.33 km/s
Sub-Earth Point -1.16°S, 83.38°E
Launch Date Jan 23, 2025
Age 0.8 years
Type internet

Technical Details

Classification Payload
Mass 267.00 kg
Dry Mass 267.00 kg
Total Mass 267.00 kg
Length 0.30 m
Diameter 3.00 m
Span 10.00 m
Shape Box+pan
Manufacturer SECM
Bus Type Qianfan
Phase Status In Orbit
Owner/State YUANX/CN

Large Constellations

Loading constellations...